Location: Frizzleburg
(41.0764°N, 80.4548°W)
Time: 08:02:37
(UTC+00:00)

Cosmos 1697 Rocket - Pass Details

Date: 17 November 2019
Orbit: 834 x 842 km, 71.0° (Epoch: 15 December)

Event Time Altitude Azimuth Distance (km) Brightness Sun altitude
Rises 00:01:13 0° 220° (SW) 3,384 6.5 -22.4°
Reaches altitude 10° 00:03:46 10° 227° (SW) 2,453 5.8 -22.8°
Maximum altitude 00:09:08 45° 299° (WNW) 1,137 3.7 -23.9°
Enters shadow 00:14:01 13° 10° (N) 2,279 4.8 -24.8°
